Location: St. Louis
(38.6270°N, 90.1994°W)
Time: 14:10:35
(UTC-06:00)

S-56A Canister/Altair - Pass Details

Date: 07 December 2021
Orbit: 633 x 2499 km, 38.9° (Epoch: 19 January)

Event Time Altitude Azimuth Distance (km) Brightness Sun altitude
Rises 20:40:24 0° 214° (SW) 6,088 12.4 -46.3°
Reaches altitude 10° 20:45:00 10° 207° (SSW) 4,948 11.7 -47.2°
Enters shadow 20:50:26 24° 193° (SSW) 3,685 10.9 -48.2°
Maximum altitude 20:56:56 37° 147° (SSE) 2,720 - -49.5°
Drops below altitude 10° 21:05:46 10° 85° (E) 3,681 - -51.2°
Sets 21:08:38 0° 77° (ENE) 4,416 - -51.7°
